[[{"header":{"parameterUnit":"m.s-1","parameterCategory":1,"la1":30.2991,"la2":30.254,"lo1":-89.0895,"lo2":-89.0444,"dy":0.0017,"dx":0.0017,"nx":28,"ny":28,"refTime":"2025-08-23T21:00:00:Z","depth":0,"parameterNumber":2,"parameterNumberName":"U-component_of_WINDS"},"data":[0,0,0,0,0,0,0,0,0,0,0,0,0,0,0,0,0,0,0,0,0,0,0,0,0,0,0,0,0,0,0,0,0,0,0,0,0,0,0,0,0,0,0,0,0,0,0,0,0,0,0,0,0,0,0,0,0,0,-0.8823,-0.8823,0,-0.8748,-0.8747,-0.8746,-0.8676,-0.8675,-0.8674,-0.8674,-0.8594,-0.8593,-0.8592,0,0,0,0,0,0,0,0,0,0,0,0,0,-0.8907,-0.8906,-0.8824,-0.8823,-0.8822,-0.8748,-0.8747,-0.8746,-0.8676,-0.8675,-0.8674,-0.8673,-0.8595,-0.8593,-0.8592,0,0,0,0,0,0,0,0,0,0,0,0,0,-0.8855,-0.8906,-0.8824,-0.8778,-0.8773,-0.8748,-0.8747,-0.8745,-0.8676,-0.8675,-0.8674,-0.8673,-0.8595,-0.8593,-0.8591,-0.8605,0,0,-0.8585,-0.8585,0,0,0,0,0,0,0,0,-0.8858,-0.8852,-0.8786,-0.8781,-0.8776,-0.872,-0.8747,-0.8698,-0.8677,-0.8713,-0.8674,-0.8672,-0.8637,-0.8632,-0.862,-0.8601,-0.8597,-0.8585,-0.8584,-0.8583,-0.8583,0,0,0,0,0,0,0,-0.8862,-0.8855,-0.8793,-0.8785,-0.8779,-0.8761,-0.8752,-0.8737,-0.8683,-0.871,-0.8705,-0.8697,-0.8634,-0.8622,-0.8618,-0.8596,-0.8585,-0.8584,-0.8582,-0.8582,-0.8583,-0.8585,0,0,0,0,0,0,-0.8873,-0.8859,-0.8796,-0.8791,-0.8815,-0.8761,-0.8751,-0.8739,-0.8683,-0.8673,-0.8698,-0.8694,-0.8626,-0.862,-0.8615,-0.8625,-0.8583,-0.8581,-0.858,-0.8582,-0.8584,-0.8585,0,0,0,0,0,0,-0.8875,-0.8868,-0.8799,-0.8823,-0.8813,-0.8761,-0.8748,-0.8738,-0.8726,-0.8674,-0.8664,-0.8696,-0.8625,-0.8617,-0.8608,-0.8622,-0.858,-0.8579,-0.8581,-0.8583,-0.8584,-0.8648,0,0,0,0,0,0,-0.8877,-0.8869,-0.8874,-0.8824,-0.8812,-0.8793,-0.8749,-0.8738,-0.8723,-0.8717,-0.8669,-0.866,-0.8623,-0.8611,-0.8606,-0.8618,-0.8577,-0.8579,-0.8582,-0.8584,-0.8644,-0.8651,-0.8658,0,0,0,0,0,-0.8881,-0.8894,-0.8874,-0.8867,-0.8817,-0.8794,-0.8788,-0.8745,-0.8725,-0.8728,-0.8695,-0.8662,-0.8622,-0.861,-0.8604,-0.8616,-0.8578,-0.8581,-0.8584,-0.8641,-0.865,-0.8658,0,0,0,0,0,0,-0.8946,-0.8887,-0.8864,-0.8862,-0.8834,-0.8783,-0.8786,-0.8756,-0.8733,-0.8728,-0.8677,-0.8667,-0.8662,-0.8638,-0.8627,-0.8626,-0.8595,-0.8597,-0.8641,-0.8649,-0.8656,-0.8661,-0.8575,0,0,0,0,0,-0.896,-0.8947,-0.8896,-0.8899,-0.8887,-0.8839,-0.8828,-0.8798,-0.8766,-0.8754,-0.872,-0.869,-0.8671,-0.8659,-0.8638,-0.8641,-0.8629,-0.8646,-0.8653,-0.8659,-0.8661,-0.8659,-0.8666,-0.8594,-0.8594,-0.8594,0,0,-0.8989,-0.8955,-0.895,-0.8912,-0.8886,-0.8873,-0.8829,-0.8818,-0.8808,-0.8752,-0.874,-0.8715,-0.8678,-0.8675,-0.8671,-0.8654,-0.8678,-0.8663,-0.8668,-0.8666,-0.8663,-0.867,-0.8676,-0.8596,-0.8596,-0.8595,0,0,-0.9035,-0.9009,-0.9008,-0.8984,-0.8946,-0.8915,-0.8915,-0.8869,-0.885,-0.8837,-0.8795,-0.8783,-0.8751,-0.8726,-0.871,-0.8748,-0.8716,-0.8743,-0.8778,-0.8778,-0.8783,-0.8788,-0.88,-0.8806,-0.8745,-0.8745,-0.8745,0,-0.9075,-0.9055,-0.9011,-0.9002,-0.8986,-0.8937,-0.8935,-0.8914,-0.8872,-0.8861,-0.8844,-0.8802,-0.8775,-0.8764,-0.8774,-0.8762,-0.876,-0.8747,-0.8786,-0.879,-0.8794,-0.8805,-0.881,-0.8748,-0.8748,-0.8748,-0.8747,0,-0.9105,-0.9092,-0.9096,-0.9057,-0.9042,-0.9037,-0.8992,-0.8982,-0.8954,-0.8925,-0.8913,-0.8878,-0.8849,-0.8845,-0.8817,-0.883,-0.8821,-0.8796,-0.8764,-0.8805,-0.8815,-0.8819,-0.8753,-0.8752,-0.8751,-0.875,0,0,-0.9188,-0.9126,-0.9128,-0.911,-0.9066,-0.9054,-0.9047,-0.9019,-0.9011,-0.8984,-0.8976,-0.8951,-0.8927,-0.8909,-0.8878,-0.8878,-0.8909,-0.8852,-0.8851,-0.8863,-0.8921,-0.8939,-0.8945,-0.8889,-0.889,-0.889,-0.8923,0,-0.9225,-0.9209,-0.917,-0.9166,-0.9153,-0.9106,-0.91,-0.9072,-0.9045,-0.903,-0.8999,-0.8982,-0.8952,-0.8941,-0.8939,-0.8906,-0.892,-0.8903,-0.888,-0.8879,-0.8888,-0.895,-0.8969,-0.9001,-0.8927,-0.8928,-0.8928,0,-0.9265,-0.9242,-0.9237,-0.9193,-0.9186,-0.9181,-0.9153,-0.9139,-0.9107,-0.9087,-0.9067,-0.9034,-0.9023,-0.8996,-0.898,-0.897,-0.8958,-0.8941,-0.8941,-0.8935,-0.8905,-0.8944,-0.9011,-0.9015,-0.8934,-0.8933,-0.8933,0,-0.9324,-0.9291,-0.9284,-0.927,-0.922,-0.9217,-0.9196,-0.9162,-0.9149,-0.9124,-0.9114,-0.9089,-0.9075,-0.9056,-0.9017,-0.9,-0.9005,-0.8974,-0.8987,-0.8988,-0.8989,-0.8989,-0.9053,-0.8985,-0.8985,-0.8985,-0.8985,0,-0.9368,-0.9366,-0.9309,-0.9305,-0.9301,-0.9257,-0.9255,-0.923,-0.9201,-0.919,-0.9149,-0.9139,-0.9089,-0.9074,-0.9043,-0.9034,-0.9029,-0.9012,-0.9003,-0.9014,-0.9016,-0.9004,-0.9,-0.8986,-0.8986,-0.8985,-0.8985,0,-0.9432,-0.9394,-0.9382,-0.9337,-0.9325,-0.9324,-0.9285,-0.9278,-0.925,-0.9236,-0.9231,-0.9185,-0.9165,-0.9125,-0.9094,-0.9073,-0.9071,-0.9057,-0.9082,-0.9076,-0.9091,-0.9089,-0.9148,-0.9152,-0.9084,-0.9085,-0.9085,0,-0.9461,-0.9459,-0.9413,-0.9403,-0.9384,-0.9369,-0.9354,-0.9312,-0.9298,-0.9262,-0.926,-0.9237,-0.9216,-0.9186,-0.915,-0.9126,-0.911,-0.9132,-0.9106,-0.9117,-0.9108,-0.9108,-0.9107,-0.9137,-0.9138,-0.9139,-0.914,0,-0.9517,-0.9499,-0.948,-0.9455,-0.944,-0.9418,-0.9394,-0.9388,-0.934,-0.9327,-0.9306,-0.929,-0.9259,-0.9236,-0.9207,-0.9185,-0.9154,-0.9149,-0.915,-0.916,-0.9174,-0.9165,-0.9096,-0.9147,-0.9146,-0.9146,-0.9145,-0.9145,-0.9563,-0.9559,-0.9526,-0.9506,-0.9484,-0.9463,-0.9455,-0.9425,-0.9408,-0.9379,-0.9355,-0.9337,-0.9305,-0.9263,-0.9243,-0.9227,-0.9212,-0.9215,-0.9215,-0.9215,-0.922,-0.9179,-0.9222,-0.9222,-0.9221,-0.9221,-0.9221,0,-0.9615,-0.9592,-0.9575,-0.9543,-0.9528,-0.9502,-0.9475,-0.9463,-0.9448,-0.9421,-0.9402,-0.9378,-0.9356,-0.9319,-0.9294,-0.9289,-0.9274,-0.9284,-0.9283,-0.9278,-0.9235,-0.9236,-0.9296,-0.9296,-0.9296,-0.9296,-0.9296,-0.9296,-0.964,-0.9631,-0.9609,-0.9589,-0.9566,-0.9548,-0.9534,-0.9514,-0.9493,-0.9468,-0.945,-0.9427,-0.9396,-0.9368,-0.9347,-0.9337,-0.9329,-0.9343,-0.9328,-0.9288,-0.9281,-0.9274,-0.9274,-0.9342,-0.9342,-0.9371,-0.9371,-0.9372]},{"header":{"parameterUnit":"m.s-1","parameterCategory":1,"la1":30.2991,"la2":30.254,"lo1":-89.0895,"lo2":-89.0444,"dy":0.0017,"dx":0.0017,"nx":28,"ny":28,"refTime":"2025-08-23T21:00:00:Z","depth":0,"parameterNumber":3,"parameterNumberName":"V-component_of_WINDS"},"data":[0,0,0,0,0,0,0,0,0,0,0,0,0,0,0,0,0,0,0,0,0,0,0,0,0,0,0,0,0,0,0,0,0,0,0,0,0,0,0,0,0,0,0,0,0,0,0,0,0,0,0,0,0,0,0,0,0,0,0.7425,0.7425,0,0.7456,0.7456,0.7456,0.7474,0.7474,0.7474,0.7474,0.7503,0.7504,0.7504,0,0,0,0,0,0,0,0,0,0,0,0,0,0.7378,0.7379,0.7425,0.7425,0.7426,0.7455,0.7456,0.7456,0.7474,0.7474,0.7474,0.7474,0.7503,0.7504,0.7505,0,0,0,0,0,0,0,0,0,0,0,0,0,0.7402,0.7379,0.7425,0.7438,0.744,0.7455,0.7456,0.7456,0.7474,0.7474,0.7474,0.7475,0.7503,0.7504,0.7505,0.7508,0,0,0.7508,0.7508,0,0,0,0,0,0,0,0,0.7401,0.7404,0.7436,0.7438,0.7439,0.7461,0.745,0.7474,0.7474,0.7461,0.7474,0.7475,0.7489,0.7491,0.7496,0.751,0.7511,0.7508,0.7509,0.7509,0.7509,0,0,0,0,0,0,0,0.7399,0.7403,0.7437,0.7436,0.7438,0.7441,0.7445,0.7454,0.7474,0.7462,0.7464,0.7467,0.749,0.7495,0.7497,0.7511,0.7508,0.7509,0.7509,0.751,0.7526,0.7526,0,0,0,0,0,0,0.7396,0.7401,0.7436,0.7438,0.742,0.7442,0.7446,0.7454,0.7474,0.7477,0.7467,0.7468,0.7494,0.7496,0.7498,0.7502,0.7509,0.751,0.751,0.7526,0.7526,0.7525,0,0,0,0,0,0,0.7395,0.7399,0.7435,0.742,0.7425,0.7443,0.7451,0.7455,0.746,0.7477,0.7481,0.7469,0.7494,0.7497,0.7505,0.7503,0.751,0.7511,0.7526,0.7526,0.7526,0.751,0,0,0,0,0,0,0.7393,0.7398,0.7401,0.742,0.7426,0.7443,0.7451,0.7455,0.7462,0.7464,0.7481,0.7483,0.7494,0.7504,0.7506,0.7505,0.7512,0.7526,0.7526,0.7526,0.7511,0.751,0.7508,0,0,0,0,0,0.7392,0.7396,0.7401,0.7406,0.743,0.7443,0.7446,0.7459,0.7462,0.7464,0.7475,0.7483,0.7503,0.7504,0.7507,0.7506,0.7527,0.7526,0.7526,0.7512,0.751,0.7508,0,0,0,0,0,0,0.7377,0.7399,0.7405,0.7416,0.7427,0.7446,0.7449,0.7457,0.7467,0.7468,0.7482,0.7486,0.7492,0.75,0.7501,0.7509,0.7515,0.7516,0.7504,0.7502,0.7501,0.7499,0.7513,0,0,0,0,0,0.7375,0.7385,0.7403,0.7411,0.7416,0.7431,0.7437,0.7446,0.7458,0.7463,0.7474,0.7484,0.7493,0.7498,0.7507,0.7512,0.7515,0.7513,0.7511,0.751,0.751,0.751,0.7509,0.7524,0.7524,0.7524,0,0,0.7371,0.7384,0.7389,0.7408,0.7418,0.7425,0.7435,0.7444,0.7449,0.7464,0.7472,0.748,0.7493,0.7499,0.7502,0.7506,0.7506,0.751,0.7508,0.7509,0.751,0.7508,0.7507,0.7524,0.7524,0.7524,0,0,0.7368,0.7379,0.7386,0.7395,0.7409,0.7419,0.742,0.7437,0.7443,0.7451,0.7462,0.7467,0.7482,0.749,0.7496,0.7491,0.7498,0.7493,0.7486,0.7486,0.7485,0.7484,0.7481,0.7479,0.7493,0.7493,0.7493,0,0.7361,0.7374,0.7388,0.7395,0.7402,0.7415,0.742,0.7428,0.7444,0.7448,0.7452,0.7468,0.7478,0.7485,0.7483,0.7488,0.7488,0.7492,0.7484,0.7484,0.7483,0.7479,0.7478,0.7493,0.7493,0.7493,0.7493,0,0.7364,0.7373,0.7376,0.7391,0.7398,0.7404,0.7417,0.7422,0.7429,0.7437,0.7444,0.7455,0.7465,0.7468,0.7475,0.7475,0.7476,0.7482,0.7488,0.748,0.7477,0.7476,0.7491,0.7492,0.7492,0.7492,0,0,0.7354,0.7375,0.7375,0.7381,0.7396,0.7403,0.7408,0.7418,0.7421,0.7431,0.7434,0.7445,0.7449,0.7456,0.7464,0.7464,0.7457,0.747,0.747,0.7466,0.7454,0.7449,0.7447,0.7462,0.7462,0.7462,0.7452,0,0.7352,0.7364,0.7374,0.7381,0.7388,0.7399,0.7403,0.7411,0.7419,0.7424,0.7432,0.7439,0.7446,0.7449,0.745,0.7458,0.7455,0.7459,0.7463,0.7463,0.7459,0.7446,0.7441,0.7432,0.7451,0.7451,0.7451,0,0.7352,0.7361,0.7368,0.7379,0.7383,0.7387,0.7395,0.7401,0.7409,0.7414,0.742,0.7428,0.7432,0.7437,0.7441,0.7444,0.7446,0.745,0.745,0.745,0.7456,0.7445,0.743,0.7428,0.745,0.745,0.745,0,0.7342,0.7355,0.7361,0.7365,0.738,0.7381,0.7387,0.7396,0.74,0.7407,0.7409,0.7416,0.742,0.7424,0.7433,0.7437,0.7435,0.7442,0.7438,0.7437,0.7437,0.7436,0.7421,0.744,0.744,0.744,0.744,0,0.7338,0.7342,0.7356,0.7359,0.7362,0.7373,0.7376,0.7382,0.739,0.7393,0.7402,0.7405,0.7417,0.742,0.7426,0.7427,0.7429,0.7432,0.7434,0.7431,0.743,0.7432,0.7432,0.744,0.744,0.744,0.744,0,0.7328,0.7338,0.7344,0.7356,0.7359,0.736,0.737,0.7372,0.7379,0.7383,0.7384,0.7394,0.7398,0.7407,0.7414,0.7418,0.7417,0.742,0.7414,0.7415,0.7409,0.7409,0.7393,0.739,0.7412,0.7412,0.7412,0,0.7325,0.7327,0.7339,0.7342,0.7347,0.7352,0.7355,0.7365,0.7368,0.7377,0.7377,0.7382,0.7386,0.7391,0.7399,0.7403,0.7406,0.74,0.7407,0.7402,0.7404,0.7403,0.7402,0.7398,0.7398,0.7398,0.7398,0,0.7317,0.7321,0.7326,0.7332,0.7336,0.7342,0.7347,0.7349,0.736,0.7362,0.7366,0.7369,0.7375,0.7378,0.7383,0.7387,0.7393,0.7395,0.7394,0.7391,0.7386,0.7387,0.7408,0.7396,0.7396,0.7396,0.7396,0.7396,0.7309,0.7311,0.7318,0.7323,0.7328,0.7332,0.7334,0.734,0.7344,0.7349,0.7354,0.7357,0.7362,0.7369,0.7373,0.7374,0.7377,0.7376,0.7376,0.7375,0.7373,0.7386,0.7375,0.7375,0.7375,0.7375,0.7375,0,0.7301,0.7305,0.7309,0.7316,0.7319,0.7324,0.733,0.7332,0.7334,0.7339,0.7342,0.7345,0.7347,0.7354,0.7356,0.7356,0.7358,0.7356,0.7356,0.7356,0.737,0.737,0.7354,0.7354,0.7354,0.7354,0.7354,0.7354,0.7296,0.7299,0.7303,0.7306,0.7311,0.7313,0.7316,0.7319,0.7322,0.7325,0.7327,0.7331,0.7335,0.7338,0.734,0.7341,0.7341,0.7338,0.734,0.7353,0.7355,0.7357,0.7357,0.7338,0.7338,0.7325,0.7325,0.7325]}]]